Regional Weather Roundup
Issued by NWS

Home | Current Version | Previous Version | Text Only | Print | Product List | Glossary Off
Versions: 1 2 3 4 5 6 7 8 9 10 11 12 13 14 15 16 17 18 19 20 21 22 23 24 25 26 27 28 29 30 31 32 33 34 35 36 37 38 39 40 41 42 43 44 45 46 47 48 49 50

000
ASUS44 KMEG 300700
RWRTN
TENNESSEE HOURLY STATE WEATHER ROUNDUP
NATIONAL WEATHER SERVICE MEMPHIS TN
200 AM CDT THU OCT 30 2014

TNZ002-004-019-021-049-052-054-088>092-300800-
WEST TENNESSEE

CITY           SKY/WX    TMP DP  RH WIND       PRES   REMARKS
MEMPHIS INTL   CLEAR     48  45  89 CALM      30.14S
NWS MEMPHIS      N/A     44 N/A N/A MISG        N/A
JACKSON        CLEAR     41  39  93 CALM      30.15R
DYERSBURG      CLEAR     43  30  61 CALM      30.17S
UNION CITY     CLEAR     39  39 100 CALM      30.15S
PARIS          CLEAR     37  36  93 CALM      30.15S
SAVANNAH       CLEAR     37  37 100 CALM      30.14S
$$

TNZ008-025-027-028-033-062-065-066-300800-
NORTH MIDDLE TENNESSEE

CITY           SKY/WX    TMP DP  RH WIND       PRES   REMARKS
NASHVILLE      CLEAR     45  39  79 CALM      30.14F
CLARKSVILLE    CLEAR     40  37  89 CALM      30.15S
COOKEVILLE     CLEAR     37  37 100 CALM      30.12S
CROSSVILLE     CLEAR     45  35  68 N3        30.11S
$$

TNZ061-075-076-078-094-096-097-300800-
SOUTH MIDDLE TENNESSEE

CITY           SKY/WX    TMP DP  RH WIND       PRES   REMARKS
FAYETTEVILLE   CLEAR     43  37  81 N32       30.12S
TULLAHOMA      CLEAR     37  34  87 CALM      30.13R
WINCHESTER     CLEAR     37  37 100 CALM      30.12S
MCMINNVILLE    CLEAR     39  39 100 CALM      30.12S
SHELBYVILLE    CLEAR     39  39 100 CALM      30.14S
$$

TNZ017-018-042-046-047-300800-
NORTHEAST TENNESSEE

CITY           SKY/WX    TMP DP  RH WIND       PRES   REMARKS
TRI CITIES     FOG       40  40 100 CALM      30.08F VSB 1/16
ELIZABETHTON   FOG       36  36 100 CALM      30.08F VSB 1/4
$$

TNZ012-013-036-069-073-074-300800-
CENTRAL EAST TENNESSEE

CITY           SKY/WX    TMP DP  RH WIND       PRES   REMARKS
KNOXVILLE      NOT AVBL
OAK RIDGE      FOG       43  42  97 CALM      30.11F VSB 1/4
GATLINBURG     SUNNY     37  37 100 CALM      30.09S
MORRISTOWN     SUNNY     41  41 100 CALM      30.09F
$$

TNZ083-085-099-300800-
SOUTHEAST TENNESSEE

CITY           SKY/WX    TMP DP  RH WIND       PRES   REMARKS
CHATTANOOGA    CLEAR     45  42  89 CALM      30.10S
$$

SKY/WX REPORTED AS FAIR MEANS FEW OR NO CLOUDS BELOW
12 THOUSAND FEET.




USA.gov is the U.S. government's official web portal to all federal, state and local government web resources and services.